Weather in Koyda

Russia / Arkhangel'skaya Oblast'     66°22′42″N   42°32′22″E
temp.,
°C
wind,
m/s
gust,
m/s
humid.,
%
clouds,
%
prec.,
mm/h
press.,
hPa
HPBL,
m
12 may, wed
wed1200:00+5w7999100 0.4 101782
03:00+5sw913100100 1.4 1017104
06:00+4wsw91399100 1.8 1018108
09:00+3wsw67100100 1.8 102049
12:00+3w459997 0.0 102355
15:00+3n229899 0.0 102528
18:00+1ene449996 0.0 102651
21:00+1e459993 0.0 102557
13 may, thu
thu1300:00+2se689975 0.0 102460
03:00+5sse699460 0.0 102253
06:00+8s78930 0.0 102043
09:00+7wsw789026 0.0 101941
12:00+8wsw810790 0.0 101859
15:00+8wsw912775 0.0 101876
18:00+8wsw912800 0.0 101771
21:00+7wsw78860 0.0 101634
14 may, fri
fri1400:00+8sw66825 0.0 101520
03:00+9sw55815 0.0 101415
06:00+8sw66838 0.0 101324
09:00+3nnw569880 0.9 101350
12:00+2n6799100 1.0 101393
15:00+1n71098100 1.0 1013144
18:00+1n5799100 0.1 101290
21:00+2ene81294100 0.1 1013189
15 may, sat
sat1500:00+1ne91394100 0.0 1014325
03:00+1ne91395100 0.9 1014341
06:00+1ne101394100 0.2 1016395
09:00+1ne101392100 0.3 1017393
12:00+1ne9139175 0.0 1019397
15:00+1ne91285100 0.0 1020342
18:00+2ene101477100 0.0 1020306
21:00+1ene111575100 0.1 1019356
16 may, sun
sun1600:00+1ene111779100 0.0 1018350
03:00+1ene121879100 0.0 1017373
06:00+1ene131878100 0.0 1016403
09:00+1ene131978100 0.0 1014427
12:00+1ene131874100 0.0 1013453
15:00+2ene121868100 0.0 1013428
18:00+2ene111672100 0.1 1013350
21:00+1ne111577100 0.1 1013281